Location: Newark
(54.0500°N, 12.8333°E)
Time: 06:31:03
(UTC+00:00)

deb Explorer IX - Visible Passes

Search period start: 28 January 2020 00:00
Search period end: 07 February 2020 00:00
Orbit: 548 x 1101 km, 38.8° (Epoch: 27 January)

Date Brightness Start Highest point End Pass type
(mag) Time Alt. Az. Time Alt. Az. Time Alt. Az.
30 Jan ? 19:23:15 10° SSW 19:24:15 13° SSW 19:24:15 13° SSW visible
31 Jan ? 19:00:57 10° SSW 19:03:14 16° S 19:03:14 16° S visible
01 Feb ? 18:38:38 10° SSW 18:42:11 17° SSE 18:42:11 17° SSE visible
02 Feb ? 18:16:23 10° SSW 18:20:12 17° SSE 18:21:05 17° SSE visible
02 Feb ? 20:01:18 10° SW 20:02:27 14° SW 20:02:27 14° SW visible
03 Feb ? 17:54:07 10° SSW 17:57:45 16° SSE 17:59:58 14° SE visible
03 Feb ? 19:39:00 10° SW 19:41:19 18° SSW 19:41:19 18° SSW visible
04 Feb ? 17:31:53 10° SSW 17:35:19 16° SSE 17:38:49 10° SE visible
04 Feb ? 19:16:43 10° SW 19:20:10 20° SSW 19:20:10 20° SSW visible
05 Feb ? 17:09:40 10° SSW 17:12:54 15° SSE 17:16:22 10° SE visible
05 Feb ? 18:54:28 10° SW 18:58:42 20° S 18:59:01 20° S visible
06 Feb ? 16:47:28 10° SSW 16:50:28 15° SSE 16:53:42 10° SE visible
06 Feb ? 18:32:12 10° SW 18:36:15 19° S 18:37:52 17° SSE visible
06 Feb ? 20:18:54 10° SW 20:19:13 11° SW 20:19:13 11° SW visible
